Domov               UVHVVR             MKGP            O straneh              
ZDRAVSTVENO VARSTVO RASTLIN
  MREŽA AGROMET. POSTAJ
 ► PROGNOSTIČNA OBVESTILA
AGROMETEOROLOŠKI PODATKI -
ARSO
OBVLADOVANJE TVEGANJ ZARADI
NEUGODNIH VREMENSKIH RAZMER
  ► NARAVNE NESREČE
  ► SUŠA/MOČA
  ► NAMAKANJE
  ► ŽLED (gozdarstvo)
KARTOGRAFSKI PRIKAZI
SPLETNE POVEZAVE
PROJEKTI IN PUBLIKACIJE

AGROMETEOROLOŠKA MREŽA: VREMENSKE POSTAJE IN FENOLOŠKA OPAZOVANJA

Pregled podatkov za lokacijo Selo, meteorološka postaja 37838

Pregled senzorjev na lokaciji

ID Ime Zadnja
vrednost
Datum
zadnje
spremembe
Tip
senzorja
4044 Omočenost lista (U) 0 U 23.3.2019 12:00 A730WET
4045 Padavine (mm) 0 mm 23.3.2019 12:00 Rain-O-Matic
4047 Relativna vlaga 2 m (% RH) 40,15 % RH 23.3.2019 12:00 50YA
4046 Temperatura 2 m (°C) 15,34 °C 23.3.2019 12:00 50YA

Pregled podatkov zadnjih 24 ur

Zap.
št.
Datum in čas Selo
Omočenost
lista
Padavine Relativna
vlaga
2
m
Temperatura
2
m
1 23.3.2019 12:00
2 23.3.2019 11:30
3 23.3.2019 11:00
4 23.3.2019 10:30
5 23.3.2019 10:00 0 0 44,1 13,1
6 23.3.2019 09:30 0 0 45,5 12,5
7 23.3.2019 09:00 0 0 48 12
8 23.3.2019 08:30 0 0 50,4 10,9
9 23.3.2019 08:00 0 0 49,2 10,2
10 23.3.2019 07:30 0 0 50,9 9,9
11 23.3.2019 07:00 0 0 55,9 8
12 23.3.2019 06:30 0 0 61,3 6,4
13 23.3.2019 06:00 0 0 57,6 7,4
14 23.3.2019 05:30 0 0 53,7 8,5
15 23.3.2019 05:00 0 0 52,2 9,1
16 23.3.2019 04:30 0 0 49,7 9,5
17 23.3.2019 04:00 0 0 48,5 9,6
18 23.3.2019 03:30 0 0 47,8 9,7
19 23.3.2019 03:00 0 0 47,7 9,7
20 23.3.2019 02:30 0 0 48,4 9,7
21 23.3.2019 02:00 0 0 49,6 9,5
22 23.3.2019 01:30 0 0 45,9 10,5
23 23.3.2019 01:00 0 0 43,4 10,9
24 23.3.2019 00:30 0 0 41,5 11,2
25 23.3.2019 00:00 0 0 40,5 11,2
26 22.3.2019 23:30 0 0 38,4 11,5
27 22.3.2019 23:00 0 0 37,5 11,2
28 22.3.2019 22:30 0 0 35,4 11,6
29 22.3.2019 22:00 0 0 33,4 11,9
30 22.3.2019 21:30 0 0 32,1 12,2
31 22.3.2019 21:00 0 0 31,7 12,2
32 22.3.2019 20:30 0 0 32,7 11,6
33 22.3.2019 20:00 0 0 30,5 12,5
34 22.3.2019 19:30 0 0 29,8 12,6
35 22.3.2019 19:00 0 0 30,6 12,6
36 22.3.2019 18:30 0 0 30,6 13,1
37 22.3.2019 18:00 0 0 30,5 13,7
38 22.3.2019 17:30 0 0 30,8 14,7
39 22.3.2019 17:00 0 0 30,3 15,4
40 22.3.2019 16:30 0 0 29,1 15,7
41 22.3.2019 16:00 0 0 28,5 15,8
42 22.3.2019 15:30 0 0 26,7 16,4
43 22.3.2019 15:00 0 0 27,1 15,8
44 22.3.2019 14:30 0 0 28 15,7
45 22.3.2019 14:00 0 0 27,1 15,6
46 22.3.2019 13:30 0 0 28,4 15,1
47 22.3.2019 13:00 0 0 28,9 14,6
48 22.3.2019 12:30 0 0 31,3 13,9
© 2011 Ministrstvo za kmetijstvo, gozdarstvo in prehrano. Vse pravice pridržane.